User: anonymous   Login
Location: Caltech
(34.1382°N, 118.1253°W)
Time: 01:24:12
(UTC-08:00)
Language:

IRS-1A Rocket - Orbit

View from above orbital plane
View from above orbital plane
View from above satellite
View from above satellite

Ground track
Ground track

The orbit data is extracted from the following two-line orbital elements,

1 18961U 88021B   15029.05812705 -.00000233  00000-0 -12400-3 0  8493
2 18961 099.2866 011.1070 0055986 092.3485 314.4724 14.00670919373613
Epoch (UTC): 29 January 2015 01:23:42
Eccentricity: 0.0055986
inclination: 99.2866°
perigee height: 851 km
apogee height: 932 km
right ascension of ascending node: 11.1070°
argument of perigee: 92.3485°
revolutions per day: 14.00670919
mean anomaly at epoch: 314.4724°
orbit number at epoch: 37361

The dashed part of the orbit path shows where the satellite is in the earth's shadow,  

DLR